CZ-2D DEB, 44605

Orbit data source: Space-Track

CZ-2D DEB, 44605 is space debris in SSO originally from a launch on Fri, 11 Nov 2016 UTC launched from the Jiuquan Satellite Launch Center, China (JSC). Debris objects in space refer to the collection of defunct objects orbiting the Earth. Examples of debris include non-operational satellites, rocket bodies, and fragments generated from explosions, collisions, or faulty payload assembly.

Loading next visibility...
Identifier
44605, 2016-068E
Orbit
SSO
Country
Flag of CNCN / PRC
Related business
Manufacturer
Unknown
Mission
Spacecraft
Bus & Motor
Unknown
Mass
Unknown
Launch date (UTC)
2016-11-11 (10 years ago)
Launch vehicle
Unknown
Launch site
Jiuquan Satellite Launch Center, China (JSC)
Object type
Payload
Rocket body
Debris
Shape & HBR
Unknown shape, 0.1 m
Radar Cross Section
Small (<0.1 m²)

Expand to show TLE details & history
Last TLE update: 6 days ago

TLE from 6 days ago
0 CZ-2D DEB
1 44605U 16068E   26252.11358216  .00000234  00000-0  18094-3 0  9998
2 44605  98.4099 306.9215 0228566  23.9199 337.2384 13.89307344492803
Epoch: 2026-09-09T02:43Z
TLE epoch observation values (Epoch: 2026-09-09T02:43:33.498Z)
Latitude
0.00005°
Longitude
-82.13838°
Altitude
780.449 km
Speed
7.542 km/s
True Right ascension
20h 27m 41s
True Declination
0° 00' 00"
Sunlit
Object was in full shadow at epoch
Visualization orbit readout
Latitude
Unknown
Longitude
Unknown
Altitude
Unknown
Speed
Unknown
Apparent Right ascension
Unknown
Apparent Declination
Unknown
Sunlit
N/A
Visualization observer readout
Local Sidereal Time
13:39:55
Azimuth
Unknown
Elevation
Unknown
Doppler factor
Unknown
Orbital elements
Apogee altitude
1,095.242 km
Perigee altitude
761.244 km
Semi-major axis
7,306.38 km
Eccentricity
0.02286
Inclination
98.4099°
RAAN
306.9215°
Arg. of periapsis
23.9199°
True anomaly
336.19772°
Mean anomaly
337.2384°
Eccentric anomaly
336.72084°
Mean motion
3.47528 °/min
Orbital period
103.59 mins
BSTAR
0.00018094
Loading maneuver chart data...
Computing Atmospheric mass density...
Loading historical data...
Loading historical data...
Loading historical data...
Loading historical data...
Loading historical data...
Loading historical data...
Loading historical data...

Documentation

Showing up to 5 results
|